This demonstration page uses our WeatherBlox Daily Observations layout. Learn more.

Left ArrowRight Arrow

Hourly Observations for October 27, 2016

Temp ( °F °C ) Dew Point ( °F °C ) Humidity (%) Winds ( mph kmh ) Pressure ( in mb ) Visibility ( mi km ) Precip ( " mm )
12:15 am 00:15 Cloudy 50 10 43 6 76 76 SE 3 6 30.42 1030 10 16 N/A
12:35 am 00:35 Cloudy 50 10 43 6 76 76 N N/A 30.42 1030 10 16 N/A
12:55 am 00:55 Cloudy 50 10 43 6 76 76 N N/A 30.42 1030 10 16 N/A
1:15 am 01:15 Cloudy 50 10 43 6 76 76 N N/A 30.42 1030 10 16 N/A
1:35 am 01:35 Cloudy 50 10 43 6 76 76 N N/A 30.42 1030 10 16 N/A
1:55 am 01:55 Cloudy 50 10 45 7 82 82 N N/A 30.39 1029 10 16 N/A
2:15 am 02:15 Cloudy 50 10 45 7 82 82 N N/A 30.39 1029 10 16 N/A
2:35 am 02:35 Cloudy 50 10 45 7 82 82 N N/A 30.39 1029 10 16 N/A
2:55 am 02:55 Cloudy 50 10 45 7 82 82 N N/A 30.39 1029 10 16 N/A
3:15 am 03:15 Mostly Cloudy 48 9 45 7 87 87 N N/A 30.39 1029 10 16 N/A
3:35 am 03:35 Mostly Cloudy 50 10 45 7 82 82 SE 5 7 30.36 1028 10 16 N/A
3:55 am 03:55 Cloudy 48 9 45 7 87 87 N N/A 30.36 1028 10 16 N/A
4:15 am 04:15 Cloudy 48 9 45 7 87 87 N N/A 30.36 1028 10 16 N/A
4:35 am 04:35 Mostly Cloudy 46 8 45 7 93 93 N N/A 30.36 1028 10 16 N/A
4:55 am 04:55 Cloudy 46 8 45 7 93 93 N N/A 30.36 1028 10 16 N/A
5:15 am 05:15 Cloudy 48 9 45 7 87 87 SE 3 6 30.33 1027 10 16 N/A
5:35 am 05:35 Cloudy 46 8 45 7 93 93 N N/A 30.33 1027 10 16 N/A
5:55 am 05:55 Cloudy 46 8 45 7 93 93 S 3 6 30.33 1027 10 16 N/A
6:15 am 06:15 Cloudy with Nearby Thunderstorms 46 8 45 7 93 93 SSE 3 6 30.33 1027 10 16 N/A
6:35 am 06:35 Cloudy 48 9 45 7 87 87 SSE 5 7 30.33 1027 10 16 N/A
6:55 am 06:55 Cloudy 48 9 45 7 87 87 SSE 5 7 30.33 1027 10 16 N/A
7:15 am 07:15 Mostly Cloudy 48 9 45 7 87 87 SE 6 9 30.33 1027 10 16 N/A
7:35 am 07:35 Cloudy 48 9 46 8 94 94 SSE 5 7 30.30 1026 10 16 N/A
7:55 am 07:55 Cloudy 50 10 46 8 88 88 SSE 8 13 30.30 1026 10 16 N/A
8:15 am 08:15 Cloudy 50 10 46 8 88 88 SSE 8 13 30.30 1026 10 16 N/A
8:35 am 08:35 Cloudy 50 10 46 8 88 88 SSE 10 17 30.30 1026 10 16 N/A
8:55 am 08:55 Cloudy 50 10 46 8 88 88 S 6 9 30.33 1027 10 16 N/A
9:15 am 09:15 Cloudy 50 10 46 8 88 88 S 5 7 30.30 1026 10 16 N/A
9:35 am 09:35 Cloudy 50 10 48 9 94 94 S 6 9 30.30 1026 10 16 N/A
9:55 am 09:55 Cloudy 52 11 48 9 88 88 S 8 13 30.30 1026 10 16 N/A
10:15 am 10:15 Cloudy 52 11 50 10 94 94 S 8 13 30.30 1026 10 16 N/A
10:35 am 10:35 Cloudy 54 12 50 10 88 88 SSW 7 11 30.30 1026 10 16 N/A
10:55 am 10:55 Cloudy 54 12 50 10 88 88 S 14 22 30.24 1024 10 16 N/A
11:15 am 11:15 Cloudy 54 12 50 10 88 88 S 7 11 30.24 1024 10 16 N/A
11:35 am 11:35 Cloudy 55 13 50 10 82 82 S 10 17 30.24 1024 10 16 N/A
11:55 am 11:55 Cloudy with Light Rain 55 13 52 11 88 88 S 10 17 30.24 1024 10 16 N/A
12:15 pm 12:15 Cloudy with Rain 55 13 52 11 88 88 S 10 17 30.21 1023 10 16 N/A
12:35 pm 12:35 Mostly Cloudy with Light Rain 55 13 54 12 94 94 S 12 19 30.18 1022 10 16 N/A
12:55 pm 12:55 Cloudy 55 13 54 12 94 94 S 12 19 30.18 1022 10 16 N/A
1:15 pm 13:15 Cloudy with Light Rain 55 13 54 12 94 94 S 10 17 30.15 1021 10 16 N/A
1:35 pm 13:35 Cloudy with Light Rain 55 13 54 12 94 94 S 13 20 30.15 1021 10 16 N/A
1:55 pm 13:55 Cloudy 55 13 55 13 100 100 S 10 17 30.15 1021 10 16 N/A
2:15 pm 14:15 Cloudy 55 13 55 13 100 100 S 10 17 30.12 1020 10 16 N/A
2:35 pm 14:35 Cloudy with Light Rain 55 13 55 13 100 100 S 8 13 30.12 1020 10 16 N/A
2:55 pm 14:55 Cloudy 57 14 57 14 100 100 SSW 10 17 30.12 1020 10 16 N/A
3:15 pm 15:15 Cloudy 57 14 57 14 100 100 S 8 13 30.09 1019 10 16 N/A
3:35 pm 15:35 Cloudy 59 15 57 14 94 94 S 13 20 30.09 1019 10 16 N/A
3:55 pm 15:55 Cloudy 59 15 59 15 100 100 S 16 26 30.09 1019 10 16 N/A
4:15 pm 16:15 Cloudy 61 16 59 15 94 94 S 13 20 30.09 1019 10 16 N/A
4:35 pm 16:35 Cloudy 61 16 59 15 94 94 SSW 9 15 30.06 1018 10 16 N/A
4:55 pm 16:55 Partly Cloudy 63 17 59 15 88 88 SSW 13 20 30.06 1018 10 16 N/A
5:15 pm 17:15 Mostly Cloudy 63 17 59 15 88 88 SSW 13 20 30.06 1018 10 16 N/A
5:35 pm 17:35 Partly Cloudy 63 17 59 15 88 88 SSW 13 20 30.06 1018 10 16 N/A
5:55 pm 17:55 Partly Cloudy 63 17 57 14 83 83 SSW 9 15 30.06 1018 10 16 N/A
6:15 pm 18:15 Partly Cloudy 61 16 57 14 88 88 SSW 8 13 30.06 1018 10 16 N/A
6:35 pm 18:35 Mostly Cloudy 61 16 57 14 88 88 SSW 10 17 30.06 1018 10 16 N/A
6:55 pm 18:55 Partly Cloudy 61 16 57 14 88 88 SSW 9 15 30.06 1018 10 16 N/A
7:15 pm 19:15 Mostly Cloudy 61 16 55 13 83 83 SSW 9 15 30.06 1018 10 16 N/A
7:35 pm 19:35 Mostly Cloudy 61 16 55 13 83 83 SW 5 7 30.06 1018 10 16 N/A
7:55 pm 19:55 Partly Cloudy 59 15 55 13 88 88 W 5 7 30.06 1018 10 16 N/A
8:15 pm 20:15 Clear 55 13 54 12 94 94 WSW 6 9 30.06 1018 10 16 N/A
8:35 pm 20:35 Clear 59 15 55 13 88 88 WSW 6 9 30.06 1018 10 16 N/A
8:55 pm 20:55 Partly Cloudy 57 14 55 13 94 94 WSW 6 9 30.06 1018 10 16 N/A
9:15 pm 21:15 Partly Cloudy 57 14 55 13 94 94 WSW 6 9 30.06 1018 10 16 N/A
9:35 pm 21:35 Mostly Cloudy 59 15 55 13 88 88 WSW 6 9 30.06 1018 10 16 N/A
9:55 pm 21:55 Cloudy 59 15 55 13 88 88 W 6 9 30.06 1018 10 16 N/A
10:15 pm 22:15 Cloudy 61 16 55 13 83 83 NW 7 11 30.09 1019 10 16 N/A
10:35 pm 22:35 Cloudy 59 15 55 13 88 88 WNW 13 20 30.09 1019 10 16 N/A
10:55 pm 22:55 Mostly Cloudy 61 16 55 13 83 83 NNW 10 17 30.09 1019 10 16 N/A
11:15 pm 23:15 Partly Cloudy 59 15 55 13 88 88 N 10 17 30.09 1019 10 16 N/A
11:35 pm 23:35 Partly Cloudy 57 14 54 12 88 88 N 7 11 30.12 1020 10 16 N/A
11:55 pm 23:55 Clear 55 13 54 12 94 94 N 7 11 30.12 1020 10 16 N/A

Powered by AerisWeather